Location: Bli��� Lhota
(48.7570°N, 14.0120°E)
Time: 09:00:04
(UTC+00:00)

Meteor 2-9 Rocket - Pass Details

Date: 18 September 2020
Orbit: 791 x 896 km, 81.3° (Epoch: 24 October)

Event Time Altitude Azimuth Distance (km) Brightness Sun altitude
Rises 17:50:45 0° 183° (S) 3,498 7.3 -7.5°
Reaches altitude 10° 17:53:13 10° 182° (S) 2,561 6.6 -7.9°
Maximum altitude 17:59:02 74° 99° (E) 928 4.3 -8.9°
Drops below altitude 10° 18:04:50 10° 15° (NNE) 2,543 6.7 -9.8°
Sets 18:07:16 0° 14° (NNE) 3,472 7.4 -10.2°
